Change the Weather History Date:

Sunday, October 17, 2010

  Actual Average Record
Temperature  
Mean Temperature 59 °F 54 °F  
Max Temperature 70 °F 64 °F 86 °F (1950)
Min Temperature 47 °F 43 °F 26 °F (1948)
Degree Days  
Heating Degree Days 6 12  
Month to date heating degree days 119 160  
Since 1 July heating degree days 164 250  
Cooling Degree Days 0 0  
Month to date cooling degree days 12 12  
Year to date cooling degree days 1316 1036  
Growing Degree Days 8 (Base 50)    
Moisture  
Dew Point 39 °F    
Average Humidity 56    
Maximum Humidity 86    
Minimum Humidity 26    
Precipitation  
Precipitation 0.00 in 0.09 in 2.13 in (1946)
Month to date precipitation 0.08 1.49  
Year to date precipitation 37.18 29.59  
Snow  
Snow 0.00 in 0.00 in 0.00 in ()
Month to date snowfall 0.0 0.0  
Since 1 July snowfall 0.0 0.0  
Since 1 September snowfall 0.0 0.0  
Snow Depth 0.00 in    
Sea Level Pressure  
Sea Level Pressure 30.08 in    
Wind  
Wind Speed 4 mph (NNE)    
Max Wind Speed 13 mph    
Max Gust Speed 16 mph    
Visibility 10 miles    
Events      
T = Trace of Precipitation, MM = Missing Value Source: NWS Daily Summary

Daily Weather History Graph

Daily Weather History Graph

Search for Another Location

Airport or City:

Trip Planner

Search our weather history database for the weather conditions in past years. The results will help you decide how hot, cold, wet, or windy it might be!

Date:

Astronomy

Oct. 17, 2010 Rise Set
Actual Time 7:12 AM CDT 6:15 PM CDT
Civil Twilight 6:44 AM CDT 6:43 PM CDT
Nautical Twilight 6:12 AM CDT 7:14 PM CDT
Astronomical Twilight 5:40 AM CDT 7:46 PM CDT
Moon 3:36 PM CDT (10/17) 2:01 AM CDT (10/17)
Length of Visible Light 11h 58m
Length of Day
11h 03m
Waxing Gibbous, 76% of the Moon is Illuminated
Oct 17
Waxing Gibbous
Oct 22
Full
Oct 30
Last Quarter
Nov 5
New
Nov 13
First Quarter

Hourly Weather History & Observations

Time (CDT) Temp. Dew Point Humidity Pressure Visibility Wind Dir Wind Speed Gust Speed Precip Events Conditions
12:54 AM 50.0 °F 46.0 °F 86% 30.04 in 10.0 mi Calm Calm - N/A   Clear
1:54 AM 57.9 °F 45.0 °F 62% 30.04 in 10.0 mi North 3.5 mph - N/A   Clear
2:54 AM 55.0 °F 44.1 °F 67% 30.05 in 10.0 mi North 5.8 mph - N/A   Clear
3:54 AM 53.1 °F 43.0 °F 69% 30.06 in 10.0 mi North 4.6 mph - N/A   Clear
4:54 AM 51.1 °F 42.1 °F 71% 30.08 in 10.0 mi North 4.6 mph - N/A   Clear
5:54 AM 50.0 °F 39.9 °F 68% 30.09 in 10.0 mi North 4.6 mph - N/A   Clear
6:54 AM 48.0 °F 39.0 °F 71% 30.12 in 10.0 mi North 3.5 mph - N/A   Clear
7:54 AM 48.9 °F 37.9 °F 66% 30.13 in 10.0 mi North 4.6 mph - N/A   Clear
8:54 AM 52.0 °F 37.9 °F 59% 30.14 in 10.0 mi Variable 3.5 mph - N/A   Clear
9:54 AM 55.9 °F 37.0 °F 49% 30.14 in 10.0 mi NE 11.5 mph - N/A   Clear
10:54 AM 59.0 °F 39.0 °F 48% 30.15 in 10.0 mi ENE 9.2 mph - N/A   Clear
11:54 AM 63.0 °F 41.0 °F 45% 30.14 in 10.0 mi ENE 6.9 mph - N/A   Clear
12:54 PM 64.9 °F 39.9 °F 40% 30.12 in 10.0 mi ENE 4.6 mph - N/A   Clear
1:54 PM 68.0 °F 37.0 °F 32% 30.08 in 10.0 mi NNW 3.5 mph - N/A   Clear
2:54 PM 69.1 °F 36.0 °F 30% 30.06 in 10.0 mi NNE 3.5 mph - N/A   Clear
3:54 PM 69.1 °F 34.0 °F 27% 30.05 in 10.0 mi ESE 3.5 mph - N/A   Clear
4:54 PM 69.1 °F 35.1 °F 29% 30.04 in 10.0 mi Calm Calm - N/A   Clear
5:54 PM 64.0 °F 37.9 °F 38% 30.04 in 10.0 mi Calm Calm - N/A   Clear
6:54 PM 57.9 °F 39.0 °F 49% 30.04 in 10.0 mi Calm Calm - N/A   Clear
7:54 PM 55.4 °F 37.4 °F 51% 30.04 in 10.0 mi NE 3.5 mph - N/A   Clear
8:54 PM 54.0 °F 37.0 °F 53% 30.04 in 10.0 mi Calm Calm - N/A   Clear
9:54 PM 50.0 °F 41.0 °F 71% 30.05 in 10.0 mi Calm Calm - N/A   Clear
10:54 PM 50.0 °F 36.0 °F 59% 30.04 in 10.0 mi ENE 5.8 mph - N/A   Clear
11:54 PM 50.0 °F 34.0 °F 54% 30.04 in 10.0 mi NE 6.9 mph - N/A   Clear